| time (UTC) | temp C | wind direction | speed KPH | gust KPH | rain 1hr cm | rain 24hr cm | rain mn cm | humidity % | barometer mb |
| 20260506234530 | 12 | 238 | 3.2 | 16.1 | 0.00 | 0.00 | 0.00 | 85 | 1020.5 |
| 20260506233030 | 12 | 201 | 8.0 | 14.5 | 0.00 | 0.00 | 0.00 | 83 | 1020.5 |
| 20260506231534 | 12 | 196 | 8.0 | 16.1 | 0.00 | 0.00 | 0.00 | 84 | 1020.5 |
| 20260506230027 | 12 | 214 | 4.8 | 19.3 | 0.00 | 0.00 | 0.00 | 86 | 1020.6 |
| 20260506224531 | 12 | 250 | 8.0 | 17.7 | 0.00 | 0.00 | 0.00 | 85 | 1020.7 |
| 20260506223035 | 12 | 234 | 4.8 | 16.1 | 0.00 | 0.00 | 0.00 | 85 | 1020.7 |
| 20260506221538 | 12 | 223 | 6.4 | 14.5 | 0.00 | 0.00 | 0.00 | 83 | 1020.7 |
| 20260506220023 | 12 | 206 | 4.8 | 17.7 | 0.00 | 0.00 | 0.00 | 83 | 1020.7 |
| 20260506214527 | 12 | 243 | 6.4 | 14.5 | 0.00 | 0.00 | 0.00 | 82 | 1020.7 |
| 20260506213035 | 13 | 219 | 8.0 | 16.1 | 0.00 | 0.00 | 0.00 | 81 | 1020.7 |
| 20260506211533 | 13 | 188 | 6.4 | 14.5 | 0.00 | 0.00 | 0.00 | 81 | 1020.8 |
| 20260506210039 | 12 | 233 | 4.8 | 16.1 | 0.00 | 0.00 | 0.00 | 82 | 1020.7 |
| 20260506204522 | 13 | 239 | 6.4 | 16.1 | 0.00 | 0.00 | 0.00 | 81 | 1020.7 |
| 20260506203025 | 12 | 243 | 4.8 | 22.5 | 0.00 | 0.00 | 0.00 | 81 | 1020.7 |
| 20260506201531 | 12 | 200 | 8.0 | 14.5 | 0.00 | 0.00 | 0.00 | 81 | 1020.6 |
| 20260506200039 | 12 | 236 | 3.2 | 12.9 | 0.00 | 0.00 | 0.00 | 84 | 1020.7 |
| 20260506194518 | 12 | 211 | 4.8 | 12.9 | 0.00 | 0.00 | 0.00 | 84 | 1020.7 |
| 20260506193021 | 11 | 179 | 4.8 | 17.7 | 0.00 | 0.00 | 0.00 | 86 | 1020.6 |
| 20260506191525 | 11 | 198 | 8.0 | 12.9 | 0.00 | 0.00 | 0.00 | 86 | 1020.7 |
| 20260506190012 | 11 | 179 | 6.4 | 16.1 | 0.00 | 0.00 | 0.00 | 85 | 1020.6 |
| 20260506184515 | 11 | 190 | 4.8 | 12.9 | 0.00 | 0.00 | 0.00 | 85 | 1020.4 |
| 20260506183017 | 11 | 245 | 4.8 | 16.1 | 0.00 | 0.00 | 0.00 | 85 | 1020.3 |
| 20260506181529 | 11 | 225 | 6.4 | 14.5 | 0.00 | 0.00 | 0.00 | 85 | 1020.3 |
| 20260506180008 | 11 | 227 | 4.8 | 16.1 | 0.00 | 0.00 | 0.00 | 86 | 1020.2 |
| 20260506174512 | 11 | 202 | 8.0 | 19.3 | 0.00 | 0.00 | 0.00 | 86 | 1020.3 |
| 20260506173015 | 11 | 200 | 3.2 | 14.5 | 0.00 | 0.00 | 0.00 | 86 | 1020.1 |
| 20260506171543 | 11 | 246 | 4.8 | 11.3 | 0.00 | 0.00 | 0.00 | 86 | 1020.1 |
| 20260506170012 | 11 | 244 | 3.2 | 12.9 | 0.00 | 0.00 | 0.00 | 86 | 1019.9 |
| 20260506164516 | 11 | 204 | 4.8 | 9.7 | 0.00 | 0.00 | 0.00 | 85 | 1019.8 |
| 20260506163022 | 11 | 209 | 3.2 | 12.9 | 0.00 | 0.00 | 0.00 | 86 | 1019.8 |
| 20260506161529 | 11 | 225 | 3.2 | 9.7 | 0.00 | 0.00 | 0.00 | 87 | 1019.8 |
| 20260506160013 | 10 | 219 | 3.2 | 8.0 | 0.00 | 0.00 | 0.00 | 88 | 1019.8 |
| 20260506154515 | 10 | 216 | 1.6 | 11.3 | 0.00 | 0.00 | 0.00 | 89 | 1019.9 |
| 20260506153018 | 10 | 202 | 4.8 | 16.1 | 0.00 | 0.00 | 0.00 | 89 | 1019.9 |
| 20260506151524 | 10 | 212 | 6.4 | 14.5 | 0.00 | 0.00 | 0.00 | 89 | 1019.8 |
| 20260506150010 | 10 | 230 | 4.8 | 12.9 | 0.00 | 0.00 | 0.00 | 89 | 1019.4 |
| 20260506144513 | 10 | 228 | 0.0 | 3.2 | 0.00 | 0.00 | 0.00 | 90 | 1019.3 |
| 20260506143024 | 10 | 184 | 3.2 | 6.4 | 0.00 | 0.00 | 0.00 | 89 | 1019.1 |
| 20260506141529 | 10 | 238 | 0.0 | 9.7 | 0.00 | 0.00 | 0.00 | 89 | 1019.2 |
| 20260506140014 | 10 | 200 | 0.0 | 6.4 | 0.00 | 0.00 | 0.00 | 90 | 1019.1 |
| 20260506134534 | 10 | 199 | 0.0 | 6.4 | 0.00 | 0.00 | 0.00 | 90 | 1019.0 |
| 20260506133021 | 10 | 195 | 0.0 | 3.2 | 0.00 | 0.00 | 0.00 | 90 | 1018.9 |
| 20260506131526 | 10 | 195 | 0.0 | 6.4 | 0.00 | 0.00 | 0.00 | 90 | 1018.8 |
| 20260506130007 | 10 | 198 | 1.6 | 6.4 | 0.00 | 0.00 | 0.00 | 90 | 1018.6 |
| 20260506124513 | 10 | 201 | 0.0 | 6.4 | 0.00 | 0.00 | 0.00 | 90 | 1018.6 |
| 20260506123011 | 10 | 217 | 1.6 | 9.7 | 0.00 | 0.00 | 0.00 | 90 | 1018.6 |
| 20260506121514 | 10 | 209 | 4.8 | 14.5 | 0.00 | 0.00 | 0.00 | 89 | 1018.7 |
| 20260506120011 | 10 | 203 | 3.2 | 8.0 | 0.00 | 0.00 | 0.00 | 89 | 1018.6 |
| 20260506114521 | 10 | 210 | 3.2 | 6.4 | 0.00 | 0.00 | 0.00 | 89 | 1018.5 |
| 20260506113015 | 10 | 215 | 0.0 | 4.8 | 0.00 | 0.00 | 0.00 | 89 | 1018.2 |
| 20260506111517 | 10 | 242 | 3.2 | 9.7 | 0.00 | 0.00 | 0.00 | 90 | 1018.2 |
| 20260506110009 | 10 | 217 | 0.0 | 9.7 | 0.00 | 0.00 | 0.00 | 90 | 1018.1 |
| 20260506104514 | 10 | 225 | 3.2 | 16.1 | 0.00 | 0.00 | 0.00 | 90 | 1017.9 |
| 20260506103024 | 10 | 222 | 0.0 | 6.4 | 0.00 | 0.00 | 0.00 | 90 | 1017.7 |
| 20260506101520 | 10 | 215 | 0.0 | 6.4 | 0.00 | 0.00 | 0.00 | 90 | 1017.5 |
| 20260506100006 | 10 | 230 | 0.0 | 3.2 | 0.00 | 0.00 | 0.00 | 90 | 1017.4 |
| 20260506094515 | 10 | 240 | 1.6 | 4.8 | 0.00 | 0.00 | 0.00 | 90 | 1017.4 |
| 20260506093011 | 10 | 214 | 0.0 | 3.2 | 0.00 | 0.00 | 0.00 | 90 | 1017.5 |
| 20260506091523 | 10 | 231 | 1.6 | 8.0 | 0.00 | 0.00 | 0.00 | 90 | 1017.4 |
| 20260506090006 | 10 | 189 | 0.0 | 8.0 | 0.00 | 0.00 | 0.00 | 90 | 1017.4 |
| 20260506084510 | 10 | 200 | 1.6 | 9.7 | 0.00 | 0.00 | 0.00 | 90 | 1017.4 |
| 20260506083013 | 10 | 233 | 1.6 | 9.7 | 0.00 | 0.00 | 0.00 | 91 | 1017.4 |
| 20260506081522 | 10 | 201 | 4.8 | 9.7 | 0.00 | 0.00 | 0.00 | 91 | 1017.2 |
| 20260506073012 | 8 | 192 | 0.0 | 0.0 | 0.00 | 0.00 | 0.00 | 92 | 1016.9 |
| 20260506071515 | 7 | 193 | 0.0 | 0.0 | 0.00 | 0.00 | 0.00 | 91 | 1016.7 |
| 20260506070127 | 7 | 193 | 0.0 | 0.0 | 0.00 | 0.00 | 0.00 | 91 | 1016.7 |
| 20260506061523 | 8 | 193 | 0.0 | 0.0 | 0.00 | 0.00 | 0.00 | 91 | 1016.4 |
| 20260506044518 | 10 | 221 | 4.8 | 12.9 | 0.00 | 0.00 | 0.00 | 90 | 1016.3 |
| 20260506043017 | 10 | 191 | 3.2 | 9.7 | 0.00 | 0.00 | 0.00 | 90 | 1016.1 |
| 20260506041534 | 10 | 200 | 6.4 | 16.1 | 0.00 | 0.00 | 0.00 | 90 | 1015.8 |
| 20260506040034 | 10 | 198 | 3.2 | 11.3 | 0.00 | 0.00 | 0.00 | 89 | 1015.6 |
| 20260506034519 | 10 | 195 | 1.6 | 9.7 | 0.00 | 0.00 | 0.00 | 89 | 1015.3 |
| 20260506033022 | 10 | 238 | 3.2 | 9.7 | 0.00 | 0.00 | 0.00 | 88 | 1015.1 |
| 20260506031531 | 11 | 200 | 3.2 | 11.3 | 0.00 | 0.00 | 0.00 | 87 | 1015.0 |
| 20260506030013 | 11 | 183 | 4.8 | 12.9 | 0.00 | 0.00 | 0.00 | 86 | 1015.1 |
| 20260506024532 | 11 | 229 | 4.8 | 14.5 | 0.00 | 0.00 | 0.00 | 85 | 1015.1 |
| 20260506023026 | 12 | 243 | 4.8 | 24.1 | 0.00 | 0.00 | 0.00 | 84 | 1015.1 |
| 20260506021531 | 12 | 213 | 4.8 | 17.7 | 0.00 | 0.00 | 0.00 | 82 | 1015.0 |
| 20260506020034 | 13 | 225 | 8.0 | 16.1 | 0.00 | 0.00 | 0.00 | 81 | 1015.2 |
| 20260506014522 | 13 | 186 | 4.8 | 16.1 | 0.00 | 0.00 | 0.00 | 81 | 1015.0 |
| 20260506013027 | 13 | 219 | 6.4 | 16.1 | 0.00 | 0.00 | 0.00 | 80 | 1015.2 |
| 20260506011557 | 13 | 185 | 4.8 | 19.3 | 0.00 | 0.00 | 0.00 | 80 | 1015.2 |
| 20260506010144 | 13 | 223 | 8.0 | 17.7 | 0.00 | 0.00 | 0.00 | 79 | 1015.1 |
| 20260506004532 | 14 | 271 | 6.4 | 22.5 | 0.00 | 0.00 | 0.00 | 79 | 1015.3 |
| 20260506003033 | 13 | 200 | 4.8 | 19.3 | 0.00 | 0.00 | 0.00 | 81 | 1015.3 |
| 20260506001542 | 13 | 196 | 8.0 | 20.9 | 0.00 | 0.00 | 0.00 | 81 | 1015.3 |
| 20260506000105 | 13 | 186 | 11.3 | 24.1 | 0.00 | 0.00 | 0.00 | 80 | 1015.5 |